Location: Peterborough
(44.3091°N, 78.3197°W)
Time: 18:31:21
(UTC-04:00)

Transit 2A Rocket - Visible Passes

Search period start: 28 May 2024 00:00
Search period end: 07 June 2024 00:00
Orbit: 584 x 909 km, 66.7° (Epoch: 28 May)

Date Brightness Start Highest point End Pass type
(mag) Time Alt. Az. Time Alt. Az. Time Alt. Az.
28 May 4.9 03:31:08 29° SSW 03:33:38 72° ESE 03:38:55 10° NE visible
29 May 5.7 02:48:13 31° SSE 02:49:46 40° ESE 02:54:39 10° NE visible
29 May 6.1 04:28:01 10° WSW 04:32:21 32° NW 04:37:12 10° NNE visible
30 May 6.4 02:05:16 22° ESE 02:06:02 22° ESE 02:10:00 10° ENE visible
30 May 5.4 03:45:04 22° WSW 03:48:05 52° NW 03:53:20 10° NNE visible
31 May 7.1 01:22:17 12° ESE 01:22:27 12° ESE 01:24:23 10° ENE visible
31 May 4.8 03:02:05 39° SSW 03:03:58 87° WNW 03:09:21 10° NNE visible
31 May 7.0 04:43:49 10° W 04:47:22 18° NW 04:51:07 10° N visible
01 Jun 5.2 02:19:03 46° SSE 02:20:01 53° ESE 02:25:11 10° NE visible
01 Jun 6.5 03:58:50 11° W 04:02:52 27° NW 04:07:28 10° NNE visible
02 Jun 6.0 01:35:59 30° ESE 01:36:13 30° ESE 01:40:44 10° NE visible
02 Jun 5.8 03:15:46 22° WSW 03:18:31 41° NW 03:23:39 10° NNE visible
03 Jun 6.8 00:52:53 17° E 00:52:53 17° E 00:55:45 10° ENE visible
03 Jun 5.0 02:32:40 41° SW 02:34:19 69° NW 02:39:44 10° NNE visible
03 Jun 7.2 04:14:49 10° WNW 04:17:58 16° NNW 04:21:17 10° N visible
04 Jun 4.8 01:49:31 59° S 01:50:17 70° ESE 01:55:39 10° NE visible
04 Jun 6.8 03:29:24 10° W 03:33:24 23° NW 03:37:42 10° NNE visible
05 Jun 5.5 01:06:20 39° ESE 01:06:25 39° ESE 01:11:21 10° NE visible
05 Jun 6.2 02:46:06 19° W 02:48:58 34° NW 02:53:57 10° NNE visible
05 Jun 7.8 04:32:45 10° NNW 04:33:21 10° NNW 04:33:57 10° NNW visible
06 Jun 6.4 00:23:06 22° E 00:23:06 22° E 00:26:41 10° ENE visible
06 Jun 5.4 02:02:52 35° WSW 02:04:42 54° NW 02:10:04 10° NNE visible
06 Jun 7.4 03:45:55 10° WNW 03:48:36 14° NNW 03:51:23 10° N visible
06 Jun 7.0 23:39:48 12° E 23:39:48 12° E 23:40:59 10° E visible
